Dewpoint
34 34 33 35 34 33 32 31 30 31 30 31 30 29 27 27 27 31 36 49 57 53 50 47 48 50 56 60 62 63 65 68 68 68 69 69 69 69 68 68 68 66 65
34 35 35 35 35 34 34 33 31 32 32 31 31 30 29 29 29 28 30 36 50 56 52 48 48 48 50 52 58 62 63 64 68 68 70 69 69 69 69 69 67 67 65
36 37 35 35 35 35 36 35 34 34 34 33 32 32 31 30 30 29 29 32 37 47 51 53 47 47 49 51 53 55 61 63 64 68 69 68 69 69 69 69 68 67 66
36 38 37 36 36 37 38 36 36 35 35 34 33 33 30 31 30 31 32 31 33 35 42 49 50 45 48 51 52 54 55 61 64 64 67 69 69 70 70 69 69 68 67
37 37 36 36 37 38 38 37 36 35 35 35 35 33 32 32 33 31 30 30 31 36 39 47 54 55 50 51 51 53 51 52 59 63 64 67 68 69 70 71 70 69 68
34 36 37 36 37 36 36 35 35 36 35 35 34 33 33 33 32 31 31 31 33 32 36 40 45 48 55 50 48 49 51 49 51 55 62 64 65 67 68 68 70 70 69
34 34 37 35 36 35 35 35 36 35 35 36 34 33 33 32 31 29 30 29 30 29 29 33 36 44 47 52 54 50 49 49 48 53 52 56 63 66 67 67 68 70 70
33 33 33 34 33 34 33 34 35 35 37 36 32 31 29 30 31 29 27 28 27 30 30 29 29 29 32 36 41 50 52 48 46 48 49 50 55 62 65 66 67 68 69
34 32 31 32 32 33 34 33 35 34 34 34 32 30 29 27 29 29 29 29 29 30 30 29 29 29 29 30 36 40 47 49 46 47 49 50 54 56 60 64 67 67 68
34 32 31 32 32 33 33 33 34 32 32 31 33 33 32 31 28 28 29 29 30 29 30 31 31 32 31 33 38 44 48 52 46 47 49 50 51 51 53 58 62 66 67
34 32 32 32 31 33 34 32 31 31 32 32 32 31 31 31 30 29 28 28 29 30 30 31 32 32 32 33 35 39 45 50 49 45 46 48 51 51 52 53 56 61 65
36 33 33 33 33 32 32 32 32 31 31 32 32 32 32 31 29 29 29 28 28 29 31 31 31 32 33 34 37 42 43 44 47 46 44 46 47 49 51 52 53 56 60
33 33 33 32 31 31 31 31 31 31 31 31 31 31 32 32 31 30 30 29 29 30 31 32 33 33 33 34 35 42 44 43 46 44 43 44 46 47 49 50 52 53 55
33 33 32 31 30 30 30 30 30 30 30 31 30 30 31 32 33 33 31 31 30 31 31 31 33 34 34 34 38 41 37 42 44 46 47 46 44 45 48 49 50 52 52
33 31 30 30 30 30 29 28 29 28 29 29 30 30 30 32 34 34 34 34 32 31 30 31 32 33 33 33 35 34 34 39 43 45 48 46 44 46 46 47 48 49 51
31 31 30 28 28 28 27 27 28 28 28 30 30 31 31 33 33 35 34 33 33 32 30 31 32 33 33 32 34 34 33 39 41 42 44 47 46 44 45 47 50 51 52
26 25 25 26 25 25 24 24 24 25 27 28 30 31 32 32 33 31 33 33 33 32 31 31 32 32 31 32 32 33 35 34 35 40 41 44 47 45 46 48 52 53 53
25 25 24 24 24 25 25 25 27 28 29 29 31 32 31 31 32 32 34 33 34 34 33 31 32 33 33 33 33 33 33 33 33 37 39 42 44 47 48 49 51 52 52
24 24 24 24 25 26 27 29 31 32 32 31 31 30 31 32 33 34 33 33 34 33 34 33 33 34 34 34 34 34 34 34 33 38 40 40 42 44 47 47 49 51 51
24 24 24 25 27 27 29 31 31 31 31 32 34 35 35 35 35 35 35 34 34 34 35 35 36 35 34 35 35 34 34 35 34 33 37 38 39 41 43 46 49 51 52
24 25 25 26 28 30 30 31 32 32 34 35 36 36 37 39 43 43 42 42 42 40 39 39 38 38 38 35 34 35 35 35 35 35 35 35 35 37 38 41 45 50 50
25 26 26 30 30 30 36 37 36 37 38 39 40 41 42 42 43 45 44 44 42 41 40 40 39 38 38 38 37 35 35 34 33 35 34 35 37 37 39 39 43 48 49
25 25 28 29 29 29 36 38 40 37 39 41 41 41 40 39 42 39 41 42 42 42 42 40 40 39 39 40 39 37 37 36 35 35 36 35 38 37 40 41 47 47 48
25 26 29 28 29 30 37 39 40 39 39 39 38 39 40 39 39 39 39 39 39 39 40 41 42 42 42 41 41 40 39 38 38 36 36 34 37 37 39 40 44 48 48
26 29 28 28 29 30 39 40 39 39 40 40 39 40 39 38 41 41 37 38 38 39 42 45 44 45 47 46 44 42 40 39 37 36 37 37 36 37 38 38 40 44 48
29 29 29 31 36 35 38 40 40 40 37 39 38 38 38 37 39 39 36 37 38 39 40 41 42 44 45 47 47 42 40 39 38 37 38 38 38 38 36 40 41 43 43
Lifted_Index
15 15 15 15 15 15 15 15 15 15 15 15 15 15 15 15 15 15 15 13 11 9 9 10 10 9 7 5 4 2 1 -0 -1 -1 -2 -2 -2 -2 -1 -1 -0 0 1
14 14 14 14 14 14 14 14 14 15 15 15 15 15 15 15 15 15 15 14 12 11 10 10 10 10 9 7 5 4 2 1 -1 -1 -2 -2 -2 -2 -2 -1 -1 0 1
14 14 14 14 14 14 14 14 14 14 14 15 15 15 15 15 15 15 15 15 14 13 11 10 10 10 10 9 7 6 4 2 0 -1 -1 -2 -2 -2 -2 -2 -1 -0 0
14 14 13 13 13 13 13 13 13 13 14 14 15 15 15 15 15 15 15 15 14 14 13 11 10 10 10 9 8 7 6 4 2 1 -1 -1 -2 -2 -2 -2 -2 -1 -1
13 13 13 13 13 13 13 13 13 13 14 14 15 15 15 15 15 15 14 14 14 13 13 12 11 10 9 9 9 8 8 7 5 3 1 -1 -1 -2 -2 -3 -2 -2 -1
13 13 12 12 12 12 12 13 13 13 14 14 15 15 15 15 15 14 14 14 13 13 12 12 12 11 9 9 9 9 9 8 7 6 3 1 -0 -1 -2 -2 -3 -3 -2
12 12 12 12 12 12 12 12 13 13 14 14 15 14 14 14 14 14 14 13 13 12 12 13 13 13 11 10 10 10 9 9 9 8 7 4 2 0 -1 -2 -3 -3 -3
11 11 11 11 11 11 12 12 12 13 13 14 14 14 13 13 13 14 14 13 13 13 13 14 14 14 13 12 12 11 11 10 10 10 9 7 5 3 1 -1 -2 -3 -3
9 9 10 10 11 11 11 12 12 13 13 14 14 14 14 13 13 14 14 14 14 14 15 15 15 14 14 14 13 13 12 11 10 10 10 9 7 6 3 1 -1 -2 -2
8 9 9 10 10 11 11 11 12 12 13 13 13 14 14 14 14 14 14 14 15 15 15 15 14 14 14 14 14 13 12 11 10 10 9 9 8 8 6 4 2 -0 -1
8 9 10 10 10 10 11 11 11 12 12 13 13 13 14 14 14 14 13 13 14 14 14 14 14 14 14 14 14 13 12 11 10 10 10 9 9 8 8 6 4 2 0
9 9 10 10 10 10 11 11 11 12 12 13 13 13 13 13 13 13 13 13 13 14 14 14 14 14 13 13 13 13 12 11 11 11 11 10 10 9 8 8 6 4 3
9 9 9 10 10 11 11 12 12 12 13 13 13 13 13 13 13 13 13 13 13 13 14 13 13 13 13 13 13 13 12 12 11 11 11 11 10 10 9 8 8 6 5
9 9 9 10 10 11 11 12 12 12 13 13 13 13 13 13 13 13 13 13 13 13 13 13 13 13 13 13 13 13 12 12 11 11 10 11 11 10 10 9 9 8 7
9 9 9 10 10 11 11 12 12 12 12 12 12 12 12 12 12 12 12 12 12 12 12 12 13 13 12 13 13 13 13 12 12 11 10 10 10 10 10 10 9 8 8
9 9 9 10 10 11 11 11 12 12 12 12 12 12 11 11 11 11 11 11 12 12 12 12 12 12 12 12 12 12 12 12 12 11 11 10 10 10 10 10 9 8 8
9 9 9 10 10 10 11 11 11 11 11 11 11 11 11 11 10 11 11 11 11 11 10 10 11 11 11 10 10 10 11 11 11 11 10 9 9 9 10 9 8 7 7
9 9 9 10 10 10 11 11 11 11 10 10 10 10 10 10 10 9 9 9 9 9 8 8 8 9 8 8 8 8 9 9 9 9 9 9 8 8 8 8 8 7 7
9 9 10 10 10 10 10 10 10 10 9 9 9 9 9 8 8 8 8 7 7 7 7 6 6 7 7 6 7 7 7 7 8 8 8 8 8 7 7 7 7 7 7
9 10 10 10 10 10 9 9 9 8 8 8 8 8 7 7 7 6 6 6 6 5 5 5 5 5 6 6 6 6 6 7 7 7 8 9 9 8 7 7 6 6 6
9 9 9 9 9 8 8 8 7 7 7 7 7 6 6 6 6 5 5 5 5 5 5 5 5 5 5 5 5 5 6 6 7 7 8 9 9 9 8 7 6 5 5
9 9 9 8 8 8 7 7 7 7 6 6 6 6 6 6 6 5 5 4 4 4 5 5 5 5 5 5 5 6 6 6 7 7 8 9 9 9 8 7 6 5 5
8 8 8 8 8 8 8 7 7 7 7 6 6 6 6 6 6 6 6 5 5 5 5 5 5 5 6 6 6 6 6 7 7 7 8 9 9 8 8 7 6 6 5
8 8 7 8 8 8 8 7 7 7 7 7 7 7 7 7 7 7 7 6 6 6 6 6 5 5 5 6 6 6 6 7 7 7 8 8 8 8 8 8 7 6 6
8 8 8 8 9 9 8 8 7 7 7 7 8 8 8 8 8 7 7 7 7 6 6 5 5 5 4 4 5 6 6 6 6 6 7 8 8 8 8 8 8 7 7
8 8 9 9 9 9 9 8 7 7 8 8 8 8 8 9 8 8 7 7 7 6 6 5 5 4 3 3 4 5 5 6 6 6 7 7 7 7 8 8 8 8 7